Погода Ростов Великий

Хотите узнать прогноз погоды Ростов Великий? Тогда Вам сюда: Погода Ростов Великий

Поиск расширенной информации на нашем сайте:

Полезная информация:

Новости сайта



02.01.2020
Опубликован Долгосрочный прогноз погоды по городам России и ближнего зарубежья на январь 2020 года.
Карты: Прогноз на январь и февраль 2020 года, Сравнение прогнозируемой аномалии приземной температуры воздуха на январь 2020 года по разным моделям.




Погода Ростов Великий - сегодня

Время (UTC), дата Ветер
(°,м/с) 
Видим.   Явления Облачность Т
(°С)
Тd
(°С)
f(%) Тe
(°С)
Pmin
(гПа)
dP
(гПа)
Po
(мм)
O2
(г/м3)
Тmin Tmax R s Состояние
почвы
03 30.11.20 160 (Ю) 10 км    10/0 средняя 
[Ac und]
+1.8 -0.6 84 1032.2  -0.4  765  306  +1.1         
06 30.11.20 160 (Ю) 10 км    10/0 средняя 
[Ac und]
+1.1 -0.9 86 -1  1032.5  0.2  765  307           
09 30.11.20 160 (Ю) 10 км  {ливн. осадки}  10/10 600 м кучево-дожд. 
[Cb cap]
+0.3 -1.6 87 -2  1032.2  -0.3  764  308           
12 30.11.20 160 (Ю) 10 км  {ливн. осадки}  10/10 600 м кучево-дожд. 
[Cb cap]
+0.1 -1.6 88 -2  1031.5  -0.7  764  308           
15 30.11.20 170 (Ю) 10 км    10/10 600 м кучево-дожд. 
[Cb cap]
+0.2 -1.6 88 -2  1031.1  -0.4  764  308    +1.8  0.1     
18 30.11.20 180 (Ю) 4{10}  4000 м  слаб. ливневой снег  10/10 600 м кучево-дожд. 
[Cb cap]
+0.2 -1.8 86 -2  1030.9  -0.2  764  308           
21 30.11.20 180 (Ю) 10 км  {ливн. осадки}  10/10 600 м кучево-дожд. 
[Cb cap]
-0.3 -2.2 87 -2  1030.9  764  308           
00 01.12.20 180 (Ю) 10 км  {ливн. осадки}  10/10 600 м 
[Sc]
-0.5 -2.9 84 -2  1030.8  0.1  763  309           
03 01.12.20 170 (Ю) 10 км    10/10 600 м 
[Sc]
-0.9 -3.2 84 -3  1030.8  763  309  -0.9    0.0  мокрый или
старый снег
10-40% 
06 01.12.20 180 (Ю) 10 км    10/10 600 м 
[Sc]
-1.5 -4.2 82 -4  1031.6  0.8  764  310  -1.5         
09 01.12.20 180 (Ю) 10 км    10/10 600 м 
[Sc]
-1.8 -5.1 78 -5  1032.5  0.9  765  311           
12 01.12.20 180 (Ю) 10 км    10/10 600 м 
[Sc]
-2.1 -5.3 79 -4  1033.1  0.5  765  311           
15 01.12.20 180 (Ю) 10 км  {ливн. осадки}  10/10 600 м 
[Sc]
-2.5 -5.4 80 -4  1034.1  766  312    -0.9  0.0     
21 01.12.20 190 (Ю) 10 км  {ливн. осадки}  10/10 600 м кучево-дожд. 
[Cb cap]
-3.2 -4.4 91 -3  1035.8  0.7  767  313           
00 02.12.20 210 (ЮЗ) 10 км  {ливн. осадки}  10/10 600 м 
[Sc]
-2.8 -4.6 87 -2  1036.5  0.7  768  313           
03 02.12.20 210 (ЮЗ) 10 км    10/10 600 м 
[Sc]
-2.7 -4.6 87 -2  1036.8  0.3  768  313  -3.3    0.4  равномерный
сухой снег
100% 
06 02.12.20 180 (Ю) 10 км    10/10 600 м 
[Sc]
-2.6 -4.4 87 -2  1037.6  0.8  768  313           
09 02.12.20 190 (Ю) 10 км    10/10 600 м 
[Sc]
-2.1 -4.6 83 -3  1037.8  0.2  769  313           
12 02.12.20 170 (Ю) 10 км    10/10 600 м 
[Sc]
-1.9 -4.7 81 -1  1037.6  -0.2  768  312           
15 02.12.20 160 (Ю) 10 км    10/10 600 м 
[Sc]
-2.4 -5.3 80 -3  1037.5  0.1  768  313    -1.8       
18 02.12.20 160 (Ю) 10 км    10/10 600 м 
[Sc]
-4.8 -7.5 81 -7  1037.9  0.3  769  316           
21 02.12.20 160 (Ю) 10 км    5/5 600 м 
[Sc]
-6.9 -8.8 86 -8  1037.8  -0.2  768  319           
00 03.12.20 140 (ЮВ) 10 км    8/5 600 м верхняя 
[Sc|Ci fib]
-8.1 -9.5 90 -10  1037.5  -0.4  768  320           
03 03.12.20 160 (Ю) 10 км    8/6 600 м верхняя 
[Sc|Ci fib]
-8.9 -10.4 89 -11  1037  -0.5  768  321  -8.9      сухой снег
10-40% 
06 03.12.20 160 (Ю) 10 км    8/6 600 м верхняя 
[Sc|Ci fib]
-9.5 -11.4 86 -12  1037  0.1  768  322  -9.6         
Время (UTC), дата Ветер
(°,м/с) 
Видим.   Явления Облачность Т
(°С)
Тd
(°С)
f(%) Тe
(°С)
Pmin
(гПа)
dP
(гПа)
Po
(мм)
O2
(г/м3)
Тmin Tmax R s Состояние
почвы

Для получения пояснительной информации подведите курсор к названию столбца.

ПОГОДА Ростов Великий - архив

Всё, что Вы хотите узнать о погоде Ростов Великий - удобно и подробно!

Выберите нужную дату (начиная с 1 января 2019* года) и нажмите кнопку "Найти".
Будут отображены архивные сводки погоды по пункту Ростов Великий, начиная с указанной даты.


Отображать данные в формате CSV (для использования в таблицах Excel)


Внимание! Наш архив погоды предназначен исключительно для личного некоммерческого использования в познавательных целях. Если Вам необходимы официальные справки о состоянии погоды (для производственных, юридических, коммерческих и т.п. целей), обращайтесь в органы Росгидромета.

*Примечание: данная дата относится к архиву по метеостанциям СССР (Россия, СНГ, Балтия).
Архив по метеостанциям Зарубежной Европы и Азии (кроме Китая) хранится 10 дней, по другим регионам земного шара (Китай, Африка, Америка, Австралия, Океания) - 1 день.

Ростов Великий - район местоположения метеостанции


Название, широта, долгота, высота метеостанции:
Ростов Великий 57.2°ш. 39.4°д. 101 м над ур. моря [Российская Федерация]

Дополнительная информация

В oтличие oт бoльшинства пoгoдных сайтoв мы публикуем пoдрoбную метеoинфoрмацию в детальнoм прoфессиoнальнoм фoрмате.

Характеристики температуры и влажнoсти вoздуха измеряются на высoте 2 м в тени вдали oт зданий и деревьев.
Скoрoсть ветра измеряется на высoте 10 м (на урoвне рoста челoвека скoрoсть ветра ниже в 1.5-2 раза). Если метеoстанция нахoдится в гoрoде или в лесу, тo скoрoсть ветра занижена на 2-4 м/с пo сравнению с oткрытым местoм. Скoрoсть ветра над акватoриями крупных рек и oзёр, а также на вершинах хoлмoв на 2-5 м/с выше, чем в oбычных услoвиях.
Атмoсфернoе давление в разных тoчках местнoсти мoжет значительнo oтличаться oт давления на метеoстанции, в зависимoсти oт услoвий рельефа (при пoдъёме на 10 м давление пoнижается примернo на 1 мм рт.ст.).